Weather History for KMGW - January, 2005

Change the Weather History Date:

Saturday, January 1, 2005

  Actual Average Record
Temperature  
Mean Temperature 53 °F 32 °F  
Max Temperature 60 °F 39 °F 73 °F (1952)
Min Temperature 46 °F 24 °F -4 °F (1968)
Degree Days  
Heating Degree Days 12 33  
Month to date heating degree days 33  
Since 1 July heating degree days 2017  
Cooling Degree Days 0 0  
Month to date cooling degree days 0  
Year to date cooling degree days 0  
Growing Degree Days 3 (Base 50)    
Moisture  
Dew Point 52 °F    
Average Humidity 95    
Maximum Humidity 100    
Minimum Humidity 72    
Precipitation  
Precipitation 0.00 in 0.09 in 0.89 in (2003)
Month to date precipitation 0.09  
Year to date precipitation 0.09  
Sea Level Pressure  
Sea Level Pressure 30.39 in    
Wind  
Wind Speed 5 mph (SW)    
Max Wind Speed 8 mph    
Max Gust Speed -    
Visibility 9 miles    
Events      
T = Trace of Precipitation, MM = Missing Value Source: NWS Daily Summary

Daily Weather History Graph

Daily Weather History Graph

Search for Another Location

Airport or City:

Trip Planner

Search our weather history database for the weather conditions in past years. The results will help you decide how hot, cold, wet, or windy it might be!

Date:

Astronomy

Jan. 01, 2005 Rise Set
Actual Time 7:40 AM EST 5:06 PM EST
Civil Twilight 7:10 AM EST 5:36 PM EST
Nautical Twilight 6:36 AM EST 6:10 PM EST
Astronomical Twilight 6:03 AM EST 6:43 PM EST
Moon 10:55 PM EST (1/1) 11:19 AM EST (1/1)
Length of Visible Light 10h 26m
Length of Day
9h 25m
Waning Gibbous, 70% of the Moon is Illuminated
Jan 1
Waning Gibbous
Jan 3
Last Quarter
Jan 10
New
Jan 17
First Quarter
Jan 25
Full

Hourly Weather History & Observations

Time (EST) Temp. Dew Point Humidity Pressure Visibility Wind Dir Wind Speed Gust Speed Precip Events Conditions
12:10 AM 53.6 °F 53.6 °F 100% 30.31 in 10.0 mi SW 8.1 mph - N/A   Overcast
12:46 AM 53.6 °F 53.6 °F 100% 30.31 in 10.0 mi SW 5.8 mph - N/A   Overcast
12:53 AM 54.0 °F 54.0 °F 100% 30.31 in 10.0 mi SW 6.9 mph - N/A   Overcast
1:22 AM 53.6 °F 53.6 °F 100% 30.31 in 10.0 mi SW 6.9 mph - N/A   Overcast
1:37 AM 53.6 °F 53.6 °F 100% 30.31 in 10.0 mi SW 5.8 mph - N/A   Overcast
1:53 AM 54.0 °F 54.0 °F 100% 30.32 in 10.0 mi SW 6.9 mph - N/A   Overcast
2:02 AM 53.6 °F 53.6 °F 100% 30.32 in 10.0 mi SW 6.9 mph - N/A   Overcast
2:53 AM 53.1 °F 53.1 °F 100% 30.33 in 10.0 mi SSW 5.8 mph - N/A   Overcast
3:53 AM 52.0 °F 52.0 °F 100% 30.32 in 10.0 mi SSW 5.8 mph - N/A   Partly Cloudy
4:22 AM 51.8 °F 51.8 °F 100% 30.32 in 10.0 mi SW 5.8 mph - N/A   Mostly Cloudy
4:39 AM 51.8 °F 51.8 °F 100% 30.32 in 10.0 mi SW 4.6 mph - N/A   Mostly Cloudy
4:53 AM 51.1 °F 51.1 °F 100% 30.33 in 10.0 mi SSW 5.8 mph - N/A   Partly Cloudy
5:44 AM 51.8 °F 51.8 °F 100% 30.34 in 10.0 mi SW 4.6 mph - N/A   Mostly Cloudy
5:53 AM 52.0 °F 52.0 °F 100% 30.34 in 9.0 mi Variable 3.5 mph - N/A   Mostly Cloudy
6:13 AM 51.8 °F 51.8 °F 100% 30.34 in 9.0 mi SSW 4.6 mph - N/A   Overcast
6:53 AM 52.0 °F 52.0 °F 100% 30.36 in 8.0 mi SW 3.5 mph - N/A   Overcast
7:37 AM 51.8 °F 51.8 °F 100% 30.37 in 7.0 mi SSW 3.5 mph - N/A   Overcast
7:53 AM 52.0 °F 52.0 °F 100% 30.38 in 9.0 mi SW 3.5 mph - N/A   Overcast
8:25 AM 51.8 °F 51.8 °F 100% 30.39 in 7.0 mi SSW 3.5 mph - N/A   Overcast
8:53 AM 52.0 °F 52.0 °F 100% 30.42 in 7.0 mi Calm Calm - N/A   Overcast
9:06 AM 51.8 °F 51.8 °F 100% 30.42 in 8.0 mi SSW 3.5 mph - N/A   Overcast
9:53 AM 53.1 °F 53.1 °F 100% 30.44 in 9.0 mi SSW 3.5 mph - N/A   Overcast
10:30 AM 55.4 °F 55.4 °F 100% 30.45 in 10.0 mi SW 6.9 mph - N/A   Mostly Cloudy
10:53 AM 55.0 °F 54.0 °F 96% 30.45 in 10.0 mi Variable 5.8 mph - N/A   Overcast
11:53 AM 57.0 °F 52.0 °F 83% 30.43 in 10.0 mi Variable 3.5 mph - N/A   Mostly Cloudy
12:15 PM 57.2 °F 51.8 °F 82% 30.42 in 10.0 mi Variable 3.5 mph - N/A   Overcast
12:53 PM 59.0 °F 52.0 °F 78% 30.41 in 10.0 mi Calm Calm - N/A   Mostly Cloudy
1:12 PM 60.8 °F 51.8 °F 72% 30.41 in 10.0 mi NNW 4.6 mph - N/A   Mostly Cloudy
1:53 PM 60.1 °F 51.1 °F 72% 30.41 in 10.0 mi SW 6.9 mph - N/A   Mostly Cloudy
2:53 PM 60.1 °F 51.1 °F 72% 30.41 in 10.0 mi WSW 5.8 mph - N/A   Mostly Cloudy
3:53 PM 59.0 °F 51.1 °F 75% 30.43 in 10.0 mi SW 8.1 mph - N/A   Scattered Clouds
4:53 PM 57.0 °F 50.0 °F 77% 30.44 in 10.0 mi SW 5.8 mph - N/A   Scattered Clouds
5:53 PM 55.0 °F 51.1 °F 86% 30.45 in 10.0 mi SW 5.8 mph - N/A   Mostly Cloudy
6:53 PM 52.0 °F 50.0 °F 93% 30.46 in 9.0 mi Calm Calm - N/A   Clear
7:53 PM 48.0 °F 48.0 °F 100% 30.47 in 8.0 mi Calm Calm - N/A   Clear
8:53 PM 46.9 °F 46.9 °F 100% 30.46 in 8.0 mi ENE 3.5 mph - N/A   Clear
9:53 PM 48.0 °F 48.0 °F 100% 30.47 in 7.0 mi Calm Calm - N/A   Clear
10:53 PM 46.0 °F 46.0 °F 100% 30.47 in 5.0 mi Calm Calm - N/A   Mostly Cloudy
11:53 PM 46.0 °F 46.0 °F 100% 30.46 in 5.0 mi Calm Calm - N/A   Overcast